| time (UTC) | temp F | wind direction | speed MPH | gust MPH | rain 1hr in | rain 24hr in | rain mn in | humidity % | barometer mb |
| 20260903204533 | 65 | 314 | 2.0 | 9.0 | 0.00 | 0.18 | 0.00 | 64 | 1011.9 |
| 20260903201530 | 63 | 346 | 2.0 | 7.0 | 0.00 | 0.18 | 0.00 | 66 | 1012.2 |
| 20260903194609 | 64 | 355 | 3.0 | 8.0 | 0.00 | 0.19 | 0.00 | 70 | 1012.6 |
| 20260903193032 | 61 | 87 | 0.0 | 3.0 | 0.00 | 0.20 | 0.00 | 73 | 1013.1 |
| 20260903191650 | 62 | 46 | 0.0 | 4.0 | 0.00 | 0.20 | 0.00 | 73 | 1013.2 |
| 20260903190035 | 61 | 328 | 1.0 | 5.0 | 0.00 | 0.20 | 0.00 | 78 | 1013.2 |
| 20260903184533 | 60 | 43 | 0.0 | 4.0 | 0.00 | 0.20 | 0.00 | 81 | 1013.4 |
| 20260903183143 | 59 | 51 | 0.0 | 4.0 | 0.00 | 0.20 | 0.00 | 84 | 1013.5 |
| 20260903181651 | 59 | 292 | 0.0 | 2.0 | 0.00 | 0.20 | 0.00 | 88 | 1013.6 |
| 20260903180031 | 58 | 310 | 0.0 | 3.0 | 0.00 | 0.20 | 0.00 | 90 | 1013.6 |
| 20260903173031 | 56 | 315 | 0.0 | 1.0 | 0.00 | 0.20 | 0.00 | 93 | 1013.7 |
| 20260903171536 | 55 | 337 | 0.0 | 3.0 | 0.00 | 0.20 | 0.00 | 95 | 1013.6 |
| 20260903164529 | 54 | 315 | 0.0 | 0.0 | 0.00 | 0.20 | 0.00 | 97 | 1013.9 |
| 20260903163054 | 53 | 308 | 0.0 | 3.0 | 0.00 | 0.20 | 0.00 | 97 | 1013.8 |
| 20260903161642 | 52 | 354 | 0.0 | 0.0 | 0.00 | 0.20 | 0.00 | 97 | 1014.0 |
| 20260903160046 | 52 | 305 | 0.0 | 0.0 | 0.00 | 0.20 | 0.00 | 97 | 1014.0 |
| 20260903154536 | 52 | 270 | 0.0 | 0.0 | 0.00 | 0.20 | 0.00 | 97 | 1013.9 |
| 20260903153031 | 51 | 270 | 0.0 | 0.0 | 0.00 | 0.20 | 0.00 | 97 | 1014.0 |
| 20260903151652 | 51 | 270 | 0.0 | 0.0 | 0.00 | 0.20 | 0.00 | 97 | 1014.0 |
| 20260903150036 | 50 | 201 | 0.0 | 0.0 | 0.00 | 0.20 | 0.00 | 97 | 1013.9 |
| 20260903144534 | 49 | 180 | 0.0 | 0.0 | 0.00 | 0.20 | 0.00 | 97 | 1013.7 |
| 20260903143031 | 48 | 180 | 0.0 | 0.0 | 0.00 | 0.20 | 0.00 | 97 | 1013.8 |
| 20260903140037 | 47 | 180 | 0.0 | 0.0 | 0.00 | 0.20 | 0.00 | 97 | 1013.7 |
| 20260903134534 | 47 | 181 | 0.0 | 0.0 | 0.00 | 0.20 | 0.00 | 97 | 1013.6 |
| 20260903133037 | 47 | 214 | 0.0 | 1.0 | 0.00 | 0.20 | 0.00 | 97 | 1013.5 |
| 20260903131534 | 48 | 105 | 0.0 | 0.0 | 0.00 | 0.20 | 0.00 | 97 | 1013.3 |
| 20260903124608 | 47 | 62 | 0.0 | 0.0 | 0.00 | 0.20 | 0.00 | 96 | 1013.3 |
| 20260903123032 | 47 | 67 | 0.0 | 0.0 | 0.00 | 0.20 | 0.00 | 96 | 1013.3 |
| 20260903121543 | 48 | 336 | 0.0 | 0.0 | 0.00 | 0.20 | 0.00 | 97 | 1013.3 |
| 20260903120105 | 47 | 144 | 0.0 | 0.0 | 0.00 | 0.20 | 0.00 | 96 | 1013.2 |
| 20260903114535 | 46 | 111 | 0.0 | 0.0 | 0.00 | 0.20 | 0.00 | 96 | 1013.2 |
| 20260903113036 | 46 | 147 | 0.0 | 0.0 | 0.00 | 0.20 | 0.00 | 96 | 1013.3 |
| 20260903111536 | 46 | 5 | 0.0 | 2.0 | 0.00 | 0.20 | 0.00 | 96 | 1013.1 |
| 20260903110035 | 47 | 73 | 0.0 | 3.0 | 0.00 | 0.20 | 0.00 | 96 | 1012.8 |
| 20260903104536 | 48 | 90 | 0.0 | 0.0 | 0.00 | 0.20 | 0.00 | 96 | 1012.7 |
| 20260903103035 | 50 | 96 | 0.0 | 0.0 | 0.00 | 0.20 | 0.00 | 96 | 1012.8 |
| 20260903101535 | 50 | 90 | 0.0 | 0.0 | 0.00 | 0.20 | 0.00 | 96 | 1012.8 |
| 20260903100032 | 49 | 90 | 0.0 | 0.0 | 0.00 | 0.20 | 0.00 | 96 | 1012.7 |
| 20260903094642 | 49 | 96 | 0.0 | 0.0 | 0.00 | 0.20 | 0.00 | 96 | 1012.5 |
| 20260903093037 | 48 | 177 | 0.0 | 3.0 | 0.00 | 0.20 | 0.00 | 96 | 1012.6 |
| 20260903091535 | 47 | 135 | 0.0 | 0.0 | 0.00 | 0.20 | 0.00 | 96 | 1012.6 |
| 20260903084608 | 49 | 94 | 0.0 | 0.0 | 0.00 | 0.20 | 0.00 | 95 | 1012.4 |
| 20260903081531 | 49 | 247 | 0.0 | 5.0 | 0.00 | 0.20 | 0.00 | 95 | 1012.3 |
| 20260903080035 | 49 | 245 | 0.0 | 4.0 | 0.00 | 0.20 | 0.00 | 95 | 1012.2 |
| 20260903074532 | 50 | 171 | 0.0 | 9.0 | 0.00 | 0.20 | 0.00 | 95 | 1011.9 |
| 20260903073035 | 51 | 112 | 0.0 | 0.0 | 0.00 | 0.20 | 0.00 | 95 | 1011.9 |
| 20260903071530 | 52 | 112 | 0.0 | 0.0 | 0.00 | 0.20 | 0.00 | 95 | 1011.9 |
| 20260903070106 | 52 | 112 | 0.0 | 0.0 | 0.00 | 0.20 | 0.00 | 95 | 1011.8 |
| 20260903064536 | 52 | 112 | 0.0 | 0.0 | 0.00 | 0.20 | 0.20 | 95 | 1011.8 |
| 20260903063152 | 52 | 112 | 0.0 | 0.0 | 0.00 | 0.20 | 0.20 | 94 | 1011.8 |
| 20260903061532 | 53 | 112 | 0.0 | 0.0 | 0.00 | 0.20 | 0.20 | 94 | 1011.8 |
| 20260903060031 | 54 | 128 | 0.0 | 0.0 | 0.00 | 0.20 | 0.20 | 94 | 1011.7 |
| 20260903054536 | 54 | 113 | 0.0 | 0.0 | 0.00 | 0.20 | 0.20 | 94 | 1011.7 |
| 20260903053108 | 54 | 88 | 0.0 | 0.0 | 0.00 | 0.20 | 0.20 | 94 | 1011.7 |
| 20260903051533 | 55 | 72 | 0.0 | 0.0 | 0.01 | 0.21 | 0.20 | 94 | 1011.6 |
| 20260903044536 | 55 | 22 | 0.0 | 0.0 | 0.01 | 0.22 | 0.20 | 93 | 1011.4 |
| 20260903043032 | 55 | 22 | 0.0 | 0.0 | 0.01 | 0.22 | 0.19 | 93 | 1011.4 |
| 20260903041535 | 55 | 22 | 0.0 | 0.0 | 0.00 | 0.21 | 0.19 | 93 | 1011.3 |
| 20260903040034 | 56 | 36 | 0.0 | 0.0 | 0.01 | 0.21 | 0.19 | 92 | 1011.1 |
| 20260903034542 | 56 | 25 | 0.0 | 1.0 | 0.04 | 0.21 | 0.19 | 92 | 1010.8 |
| 20260903033033 | 56 | 225 | 0.0 | 2.0 | 0.15 | 0.21 | 0.19 | 91 | 1010.5 |
| 20260903031531 | 56 | 281 | 0.0 | 3.0 | 0.15 | 0.21 | 0.18 | 90 | 1010.3 |
| 20260903024536 | 58 | 248 | 1.0 | 8.0 | 0.11 | 0.17 | 0.04 | 91 | 1010.1 |
| 20260903023034 | 58 | 312 | 0.0 | 2.0 | 0.00 | 0.06 | 0.04 | 90 | 1009.6 |
| 20260903021533 | 59 | 315 | 0.0 | 0.0 | 0.00 | 0.06 | 0.04 | 90 | 1009.5 |
| 20260903020034 | 59 | 359 | 0.0 | 6.0 | 0.00 | 0.06 | 0.04 | 90 | 1009.4 |
| 20260903014535 | 59 | 13 | 0.0 | 5.0 | 0.00 | 0.06 | 0.04 | 89 | 1009.5 |
| 20260903013036 | 59 | 307 | 0.0 | 2.0 | 0.00 | 0.06 | 0.04 | 89 | 1009.6 |
| 20260903011536 | 60 | 292 | 0.0 | 0.0 | 0.00 | 0.06 | 0.04 | 88 | 1009.6 |
| 20260903010043 | 60 | 292 | 0.0 | 0.0 | 0.00 | 0.06 | 0.04 | 88 | 1009.7 |
| 20260903010037 | 60 | 341 | 0.0 | 1.0 | 0.00 | 0.06 | 0.04 | 87 | 1009.7 |
| 20260903003037 | 60 | 22 | 0.0 | 2.0 | 0.00 | 0.06 | 0.04 | 86 | 1009.6 |
| 20260903001534 | 60 | 21 | 0.0 | 3.0 | 0.00 | 0.06 | 0.04 | 85 | 1009.7 |
| 20260903000035 | 60 | 28 | 0.0 | 6.0 | 0.01 | 0.06 | 0.04 | 85 | 1009.7 |
| 20260902234535 | 60 | 35 | 0.0 | 4.0 | 0.01 | 0.06 | 0.04 | 85 | 1009.9 |
| 20260902233036 | 60 | 23 | 1.0 | 7.0 | 0.01 | 0.06 | 0.04 | 86 | 1009.9 |
| 20260902231534 | 60 | 360 | 0.0 | 7.0 | 0.01 | 0.06 | 0.03 | 85 | 1009.9 |
| 20260902230032 | 60 | 9 | 0.0 | 1.0 | 0.00 | 0.05 | 0.03 | 84 | 1009.8 |
| 20260902223035 | 60 | 21 | 2.0 | 6.0 | 0.00 | 0.05 | 0.03 | 84 | 1009.7 |
| 20260902220105 | 60 | 35 | 0.0 | 4.0 | 0.00 | 0.05 | 0.03 | 84 | 1009.6 |
| 20260902214647 | 60 | 48 | 0.0 | 5.0 | 0.01 | 0.05 | 0.03 | 84 | 1009.7 |